This is the latest recevied weather packets stored in our database for station/object N0QV. If no packets are shown the sender has not sent any weather packets the latest 10 day(s).
| Time | Temp. | Humidity | Pressure | Rain* | Wind** | Luminosity | Snow |
|---|---|---|---|---|---|---|---|
| 1788199788 | 29.44° C | 66% | 1011.8 hPa | 0 mm | - | 253 W/m² | - |
| 1788199487 | 29.44° C | 68% | 1011.9 hPa | 0 mm | - | 460 W/m² | - |
| 1788199187 | 29.44° C | 70% | 1011.8 hPa | 0 mm | - | 672 W/m² | - |
| 1788198883 | 29.44° C | 69% | 1012.1 hPa | 0 mm | - | 524 W/m² | - |
| 1788198579 | 28.89° C | 72% | 1012.1 hPa | 0 mm | - | 499 W/m² | - |
| 1788198274 | 28.89° C | 72% | 1012.1 hPa | 0 mm | - | 488 W/m² | - |
| 1788197973 | 28.89° C | 72% | 1012.3 hPa | 0 mm | - | 652 W/m² | - |
| 1788197672 | 28.89° C | 73% | 1012.3 hPa | 0 mm | - | 273 W/m² | - |
| 1788197368 | 28.33° C | 76% | 1012.4 hPa | 0 mm | - | 221 W/m² | - |
| 1788197064 | 28.33° C | 76% | 1012.2 hPa | 0 mm | - | 229 W/m² | - |
| 1788196764 | 28.33° C | 76% | 1012.2 hPa | 0 mm | - | 254 W/m² | - |
| 1788196460 | 28.33° C | 77% | 1012.4 hPa | 0 mm | - | 323 W/m² | - |
| 1788196156 | 28.33° C | 77% | 1012.2 hPa | 0 mm | - | 324 W/m² | - |
| 1788195853 | 28.33° C | 77% | 1012.3 hPa | 0 mm | - | 310 W/m² | - |
| 1788195549 | 28.33° C | 77% | 1012.3 hPa | 0 mm | - | 265 W/m² | - |
| 1788195244 | 28.33° C | 76% | 1012.2 hPa | 0 mm | - | 263 W/m² | - |
| 1788194941 | 28.33° C | 76% | 1012.2 hPa | 0 mm | - | 289 W/m² | - |
| 1788194637 | 28.33° C | 75% | 1012.3 hPa | 0 mm | - | 361 W/m² | - |
| 1788194332 | 28.33° C | 76% | 1012.3 hPa | 0 mm | - | 291 W/m² | - |
| 1788194028 | 28.89° C | 75% | 1012.1 hPa | 0 mm | - | 370 W/m² | - |
| 1788193726 | 28.33° C | 77% | 1011.6 hPa | 0 mm | - | 342 W/m² | - |
| 1788193422 | 27.78° C | 77% | 1011.8 hPa | 0 mm | - | 494 W/m² | - |
| 1788193120 | 28.33° C | 77% | 1011.9 hPa | 0 mm | - | 265 W/m² | - |
| 1788192816 | 28.33° C | 77% | 1012 hPa | 0 mm | - | 419 W/m² | - |
| 1788192512 | 27.78° C | 78% | 1011.9 hPa | 0 mm | - | 291 W/m² | - |
* Rain latest hour (hover to see other rain measurements)
** Current wind speed in m/s (hover to see current wind gust speed)